GALAXY 31 (G-31)

Last updated on Sun Jun 21 2026 00:03:09 GMT+0000 (Coordinated Universal Time)

1 54243U 22153A 26171.22547549 .00000008 00000+0 00000+0 0 9992 2 54243 0.0250 88.2921 0001170 352.9233 147.3806 1.00272126 7167
UTC large
Height (km)
Speed (km/s)
/
Latitude / Longitude
Inclination (degrees)
Orbital Period (minutes)
Azimuth
Elevation
Range (km)
Doppler Factor

Next 0 passes for location: London (51.5072 / 0.1276)

No passes found over London.
GALAXY 31 (G-31)